Other Public Products
Issued by NWS Grand Forks, ND

Home | Current Version | Previous Version | Graphics & Text | Print | Product List | Glossary On
Versions: 1 2 3 4 5 6 7 8 9 10 11 12 13 14 15 16 17 18 19 20 21 22 23 24 25 26 27 28 29 30 31 32 33 34 35 36 37 38 39 40 41 42 43 44 45 46 47 48 49 50
000
FPUS83 KFGF 172231
OPUFGF
PRAIRIE TO PINES WEATHER ROUNDUP
NATIONAL WEATHER SERVICE EASTERN NORTH DAKOTA/GRAND FORKS ND
400 PM CST WED DEC 17 2014

 **SATELLITE DATA USED TO AUGMENT SKY COVER AT AUTOMATED STATIONS**
 *****  WEATHER ACROSS EASTERN NORTH DAKOTA  *****

CITY           SKY/WX    TMP DP  RH WIND       PRES   REMARKS
GRAND FORKS    CLEAR     17  10  74 NE3       30.34R
GRAND FORKS AF CLEAR     17  14  86 E2        30.33S
GRAND CITY NWS NOT AVBL
BUXTON           N/A     18  11  74 NE3         N/A
DEVILS LAKE    CLEAR     14   3  62 S5        30.24F WCI   6
FARGO          CLEAR     19  11  70 NE7       30.31S WCI  10
WAHPETON ARPT  CLEAR     19  12  73 NE3       30.31S
$$

 *****  WEATHER ACROSS CENTRAL AND WESTERN NORTH DAKOTA  *****

CITY           SKY/WX    TMP DP  RH WIND       PRES   REMARKS
JAMESTOWN      CLEAR     17  10  74 SE6       30.25S WCI   9
BISMARCK       PTCLDY    18  11  74 SE12      30.21R WCI   5
MINOT          PTCLDY    16   9  74 SE9       30.18S WCI   4
MINOT AFB      PTCLDY    15  12  88 SE9       30.18S WCI   3
GARRISON         N/A     17  12  80 SE10      30.17R WCI   5
WILLISTON      CLOUDY    20  13  74 SE13      30.11R WCI   7
DICKINSON      CLOUDY    18  13  80 SE12      30.05S WCI   5
HETTINGER      CLOUDY    17  14  88 SE12      30.07S WCI   4
$$

 *****  OTHER OBSERVATIONS NORTHEAST NORTH DAKOTA  *****

CITY           SKY/WX    TMP DP  RH WIND       PRES   REMARKS
WALHALLA         N/A     14  10  85 SE6       30.32F WCI   5
LANGDON        FAIR      14   9  79 E6        30.25F WCI   5
CAVALIER       FAIR      16  10  79 CALM        N/A
GRAFTON        NOT AVBL
CANDO          FAIR      14   9  79 SE5       30.26F WCI   6
FORT TOTTEN    NOT AVBL
ROLLA          FAIR      12   9  85 S8        30.23R WCI   1
RUGBY          FAIR      14   9  79 SE7       30.23S WCI   4
 ***** THE ABOVE OBSERVATIONS ARE NON NWS ARE NOT QUALITY
        CONTROLLED AND MAY MIS-REPORT RAIN FOR SNOW...
$$

 *****  OTHER OBSERVATIONS SOUTHEAST NORTH DAKOTA *****

CITY           SKY/WX    TMP DP  RH WIND       PRES   REMARKS
COOPERSTOWN    NOT AVBL
VALLEY CITY    FAIR      16  14  93 E6        30.27S WCI   7
OAKES            N/A     18  12  79 E5        30.27F WCI  11
GWINNER        CLEAR     21  14  73 MISG      30.30R
SHEYENNE NWR     N/A     20  10  65 NE2       29.95
BUFFALO        NOT AVBL
WYNDMERE         N/A     19  12  73 N3          N/A
 ***** THE ABOVE OBSERVATIONS ARE NON NWS ARE NOT QUALITY
       CONTROLLED AND MAY MIS-REPORT RAIN FOR SNOW...
$$

  *****  WEATHER ACROSS NORTHERN MINNESOTA  *****

CITY           SKY/WX    TMP DP  RH WIND       PRES   REMARKS
FLAG ISLAND    CLEAR     16   9  73 CALM      30.32S
WARROAD        PTCLDY    10   7  85 CALM      30.33S
ROSEAU         CLOUDY    16  10  79 CALM      30.32S
HALLOCK        CLEAR     16  10  79 CALM      30.33F
THF RVR FALLS  PTCLDY    16  12  86 CALM      30.31F
HALSTAD          N/A     17   9  69 NE6         N/A  WCI   9
FOSSTON        PTCLDY    16  10  79 CALM      30.29F
BAUDETTE       CLEAR     15   9  76 N5        30.31R WCI   8
WASKISH        CLEAR     16  12  86 CALM      30.30S
CROOKSTON      CLEAR     16  12  86 CALM      30.34S
$$
  *****  WEATHER ACROSS CENTRAL AND WEST MINNESOTA  *****

CITY           SKY/WX    TMP DP  RH WIND       PRES   REMARKS
BEMIDJI        CLEAR     19  12  74 N5        30.27F WCI  12
PARK RAPIDS    CLEAR     22  12  65 NE3       30.25F
WADENA         CLEAR     18  10  73 CALM      30.26R
DETROIT LAKES  CLEAR     16  12  86 N5        30.28S WCI   9
MOORHEAD       CLEAR     18  16  93 NE7       30.32S WCI   8
FERGUS FALLS   CLEAR     16  10  79 NE5       30.32S WCI   9
ELBOW LAKE     FAIR      15  10  82 NE6       30.27F WCI   6
MORRIS MN      CLEAR     16  10  79 N7        30.27F WCI   6
STAPLES        PTCLDY    18  10  73 NE3       30.26F
WHEATON        CLEAR     12   7  79 W3        30.33S
$$
  *****  WEATHER ELSEWHERE ACROSS MINNESOTA  *****

CITY           SKY/WX    TMP DP  RH WIND       PRES   REMARKS
DULUTH         CLOUDY    20  12  71 N6        30.25R WCI  12
INTRNTL FALLS  CLEAR     19   4  51 CALM      30.31R
ELY            PTCLDY    16  12  86 CALM      30.27R
CLOQUET        FLURRIES  18  12  79 CALM      30.28R
BRAINERD       CLEAR     18   9  68 N7        30.28S WCI   9
HIBBING        CLEAR     20  10  65 N6        30.26R WCI  12
ALEXANDRIA     CLEAR     17  10  74 NW6       30.26S WCI   9
SAINT CLOUD    PTCLDY    18   9  68 N6        30.29R WCI  10
MINNEAPOLIS    MOCLDY    19  10  68 NE6       30.31R WCI  11
$$

  *****  WEATHER ACROSS SOUTH DAKOTA  *****

CITY           SKY/WX    TMP DP  RH WIND       PRES   REMARKS
SIOUX FALLS    MOCLDY    18   9  68 NE6       30.25S WCI  10
BROOKINGS      NOT AVBL
WATERTOWN      CLEAR     18  12  77 W5        30.23S WCI  11
HURON          PTCLDY    14   9  80 E8        30.26F WCI   3
SISSETON         N/A     16  10  77 CALM      30.29S
ABERDEEN       CLEAR     19  10  68 E8        30.27R WCI   9
MITCHELL       MOCLDY    17  13  84 SE5       30.26S WCI  10
PIERRE         CLOUDY    18  14  84 SE15      30.16S WCI   4
MOBRIDGE       PTCLDY    20  12  71 S10       30.16S WCI   9
RAPID CITY     CLOUDY    23  20  88 E7        29.98R WCI  15
$$

  *****  SOME WEATHER IN NEARBY STATES *****

CITY           SKY/WX    TMP DP  RH WIND       PRES   REMARKS
GLASGOW MT     CLOUDY    23  17  78 E14       29.99S WCI  11
GREAT FALLS MT SUNNY     39  29  67 SW13      29.84S
CHEYENNE WY    CLOUDY    43  19  38 NW8       29.89R
SCOTTSBLUFF NE SUNNY     22  18  85 SE9       29.95R WCI  12
OMAHA NE       MOCLDY    28  16  60 CALM      30.28S
DES MOINES IA  MOCLDY    28  13  53 CALM      30.29R
DAVENPORT IA   CLEAR     26  15  63 NW10      30.27R WCI  16
CHICAGO IL     CLOUDY    26  16  65 NW12      30.23R WCI  16
EAU CLAIRE WI  PTCLDY    18   9  68 N5        30.28R WCI  11
LA CROSSE WI   CLOUDY    23  12  62 N8        30.28S WCI  14
$$

  *****  SOME NATIONAL WEATHER *****

CITY           SKY/WX    TMP DP  RH WIND       PRES   REMARKS
LA GUARDIA NY  CLOUDY    48  37  65 NW17      29.84R
RALEIGH NC     PTCLDY    55  34  45 W3        30.04R
ATLANTA GA     MOCLDY    46  37  71 NW12      30.15R
NEW ORLEANS LA PTSUNNY   57  40  52 NE6       30.19F
OKLAHOMA CITY  RAIN      37  36  93 E7        30.11S FOG
ALBUQUERQUE NM CLOUDY    43  34  70 S3        29.97S
SALT LAKE CITY CLOUDY    40  31  70 NW3       29.98S
LOS ANGELES CA PTSUNNY   61  50  67 W13       30.06S
BOISE ID       CLOUDY    46  34  62 CALM      29.93F
SEATTLE WA     LGT RAIN  48  41  76 W3        29.83F
$$

*** WEATHER ACROSS MANITOBA...SASKATCHEWAN AND ONTARIO ***
                ***ONTARIO***

CITY           SKY/WX    TMP DP  RH WIND       PRES   REMARKS
GERALDTON      PTCLDY     5   1  85 NW5       30.26R WCI  -4
THUNDER BAY    MOCLDY    16   9  73 W6        30.31R WCI   7
SIOUX LOOKOUT  PTCLDY     9   1  72 NE3       30.33R
TORONTO        FLURRIES  34  30  86 W21G28    29.90  WCI  22
BIG TROUT LK   CLEAR      5   3  92 W7        30.28S WCI  -7
PICKLE LAKE    PTCLDY     9   3  78 W3        30.31S
DRYDEN         CLEAR     12   3  67 NE2       30.32R
KENORA         PTCLDY    18   3  53 NE3       30.32R
$$
                *** MANITOBA***

CITY           SKY/WX    TMP DP  RH WIND       PRES   REMARKS
BRANDON        PTCLDY    10   7  85 E5        30.25F WCI   2
DAUPHIN        CLEAR     10   5  79 N2        30.25S
ISLAND LAKE    CLEAR      9   5  85 S6        30.29S WCI  -1
PILOT MOUND      N/A     12   9  85 SE5         N/A  WCI   4
THE PAS        FLURRIES  18  12  79 S7        30.17S WCI   8
THOMPSON       FLURRIES  16  12  86 SW12      30.17R WCI   3
WINNIPEG       PTCLDY    12   5  73 S3        30.35F
LYNN LAKE      FLURRIES  14  14 100 SW8       30.06S WCI   3
CHURCHILL      CLEAR      9   5  85 SW10      30.04  WCI  -6
GILLAM         CLOUDY    16  12  86 W10G18    30.15S WCI   3
$$
                ***SASKATCHEWAN***

CITY           SKY/WX    TMP DP  RH WIND       PRES   REMARKS
ESTEVAN        FLURRIES  18  12  79 SE13      30.13R WCI   4
KINDERSLEY     MOCLDY    19  18  93 SE7       29.89F WCI  10
LLOYDMINSTER   CLOUDY    18  16  93 SE12      29.90R FOG     WCI   5
PRINCE ALBERT  CLOUDY    18  14  86 S12       30.06F WCI   5
REGINA         CLOUDY    18  14  86 SE16      30.07S WCI   3


USA.gov is the U.S. government's official web portal to all federal, state and local government web resources and services.